SAI-1 NANOCONNECT-2

Last updated on Thu Nov 23 2023 00:03:38 GMT+0000 (Coordinated Universal Time)

1 47701U 21015C 23326.25021285 .07300726 24573-5 12831-2 0 9997 2 47701 97.3486 56.9083 0010049 289.6036 70.4174 16.32685616152877

Satellite not in orbit